CAPE
1119 1410 1899 1382 1751 1739 1962 1960 2251 2159 2028 1819 1387 1191 1069 1296 1256 1220 947 1164 871 752 372 152 316 464 344 338 592 638 742 509 383 469 861 1204 1083 921 772 813 828 914 1192
1035 1239 1963 1659 1802 1811 1918 1878 2179 2152 1820 1810 1537 1288 1116 1404 1411 1216 894 1068 1067 656 236 241 533 676 612 451 225 290 400 469 390 312 337 667 869 794 725 1081 865 942 1109
1045 1072 1518 1971 1977 1699 1686 1788 2023 2148 2138 1989 1461 1409 1571 1530 1456 1220 1058 1098 1042 466 373 336 639 853 704 552 445 280 181 121 85 123 169 122 604 834 653 792 1007 865 725
1065 801 1236 2302 2041 1803 1608 1575 1674 1546 1685 1603 1457 1615 1518 1532 1555 1311 962 932 992 565 427 570 625 587 313 195 147 36 17 3 0 48 51 195 77 908 697 636 437 495 480
1058 1253 1615 1986 2005 1918 1717 1601 1519 1455 1404 1452 1567 1619 1256 1017 1137 1130 906 975 837 1193 1117 619 538 542 433 199 65 21 0 0 0 0 3 69 164 502 891 783 443 362 291
1165 1102 1449 1687 1751 1683 1608 1606 1553 1418 1453 1418 1493 1400 1393 1479 1417 1238 1106 1258 1090 975 1032 653 452 406 598 402 114 19 8 36 0 0 0 177 210 271 683 832 492 442 337
908 888 1182 1541 1561 1495 1506 1325 1279 1280 1189 1196 1169 1118 944 925 984 1139 1032 1175 1106 1004 1028 741 462 392 410 469 215 32 0 0 0 0 7 18 254 380 315 579 580 502 291
831 674 579 628 575 581 687 1087 1213 1029 914 1061 1057 1044 1011 1224 1181 1177 1109 1103 1039 860 984 917 634 456 389 475 322 125 0 0 0 0 0 0 341 320 300 366 485 524 346
903 898 800 455 464 469 429 405 546 981 1030 944 817 878 834 1010 1090 978 1035 974 944 865 941 1062 862 791 497 428 622 315 0 0 0 0 0 14 462 119 312 293 331 545 454
907 814 718 688 543 429 424 346 323 491 823 725 577 595 656 825 729 750 786 823 940 882 865 964 1144 1102 1035 792 733 452 10 0 0 0 0 18 497 235 266 406 450 470 645
799 746 694 638 547 294 251 243 242 460 468 246 210 386 357 336 359 417 543 524 556 613 639 802 957 1087 782 650 574 463 30 0 0 0 0 165 85 116 284 331 525 587 556
162 223 309 223 224 154 36 0 12 310 365 143 114 334 269 210 343 326 392 391 369 381 431 577 659 838 663 340 273 436 125 0 0 0 0 149 150 35 103 349 564 651 641
254 109 204 148 117 92 0 0 0 0 0 11 170 154 180 248 231 238 375 477 447 378 490 550 511 405 457 401 429 350 207 72 18 0 0 156 174 142 107 192 520 722 682
123 55 0 0 0 0 0 0 0 0 0 0 0 0 0 0 0 0 0 0 0 0 0 0 8 479 466 379 374 436 417 397 239 45 12 49 294 160 179 186 319 492 657
0 0 0 0 0 0 0 0 0 0 0 0 0 0 0 0 0 0 0 0 0 0 0 0 0 0 173 251 407 415 472 455 413 271 114 85 23 50 117 245 426 551 500
0 0 0 0 0 0 0 0 0 0 0 0 0 0 0 0 0 0 0 0 0 0 0 0 0 0 0 8 119 225 346 621 376 487 181 176 185 165 58 42 238 634 601
0 0 0 0 0 0 0 0 0 0 0 0 0 0 0 0 0 0 0 0 0 0 0 0 0 0 0 0 0 2 31 87 327 372 205 165 177 159 126 94 23 404 712
0 0 0 0 0 0 0 0 0 0 0 0 0 0 0 0 0 0 0 0 0 0 0 0 0 0 0 0 0 0 0 5 0 4 12 315 82 92 72 112 122 29 575
0 0 0 0 0 0 0 0 0 0 0 0 0 0 0 0 0 0 0 0 0 0 0 0 0 0 0 0 0 0 0 0 0 0 0 7 7 4 0 11 55 27 129
0 0 0 0 0 0 0 0 0 0 0 0 0 0 0 0 0 0 0 0 0 0 0 0 0 0 0 0 0 0 0 0 0 0 0 0 0 1 0 0 0 14 22
0 0 0 0 0 0 0 0 0 0 0 0 0 0 0 0 0 0 0 0 0 0 0 0 0 0 0 1 2 0 0 0 0 0 0 0 0 0 4 2 0 0 80
0 0 0 0 0 0 0 0 0 0 0 0 0 0 0 0 0 0 0 0 0 0 0 0 0 0 3 2 13 8 0 0 0 0 0 0 0 0 0 4 5 2 12
0 0 0 0 0 0 0 0 0 0 0 0 0 0 0 0 0 0 0 0 0 0 0 1 0 0 0 1 7 22 4 1 1 0 0 0 0 0 0 5 7 12 16
0 0 0 0 0 0 0 0 0 0 0 0 0 0 0 0 0 0 0 0 0 0 0 0 7 5 3 0 5 7 10 24 19 5 33 22 10 5 0 0 2 3 9
0 0 0 0 0 0 0 0 0 0 0 0 0 0 0 0 0 0 0 0 0 0 0 0 0 0 5 13 16 4 18 23 39 40 9 0 0 0 0 0 0 1 3
0 0 0 0 0 0 0 0 0 0 0 0 0 0 0 0 0 0 0 0 0 0 0 0 0 0 0 0 2 15 19 28 28 26 34 11 2 0 4 22 20 0 0
CIN
-44 -24 0 0 0 0 0 0 0 0 -1 0 0 -1 -3 0 0 0 0 0 -1 0 -1 -13 -1 0 0 0 0 0 0 -3 -19 -12 -3 -1 0 -1 -1 -2 -10 -4 0
-53 -47 0 0 0 0 0 0 0 0 -3 -1 0 0 -1 0 0 0 0 0 0 0 -14 -10 0 0 0 0 -3 -7 -6 -10 -33 -61 -52 -18 -6 -2 -2 -2 -7 -4 0
-40 -49 -1 0 0 0 0 0 0 0 0 0 -2 0 0 0 0 0 0 0 0 -1 -7 -9 0 0 0 0 -2 -11 -33 -87 -162 -158 -113 -127 -27 -2 -2 -2 -1 -2 -1
-26 -57 -15 0 0 0 -1 -3 -2 -2 0 -2 -5 0 0 0 0 0 0 0 0 -1 -6 0 0 0 -1 -6 -12 -93 -67 -27 0 -157 -160 -61 -133 -8 -1 0 -11 -4 -3
-15 -26 -14 0 0 -1 0 -2 -2 -1 -1 -1 0 0 0 0 0 0 0 -1 -3 0 0 0 -1 0 0 -11 -42 -137 0 0 0 0 -1 -104 -53 -13 0 0 -6 -14 -25
-11 -11 -5 -1 0 0 -1 0 -1 -2 -1 0 0 0 -1 0 0 0 -1 -2 -3 -3 0 -1 -5 -5 0 -1 -25 -137 -178 -123 0 0 -1 -49 -46 -23 -4 -2 -4 -3 -15
-8 -26 -1 0 0 0 0 -1 0 0 -1 -1 -3 -1 0 0 0 0 -2 -2 -3 -4 -1 -1 -9 -12 -6 -1 -15 -99 0 0 0 0 -4 -92 -24 -7 -12 -7 -5 -2 -21
-24 -21 -46 -33 -24 -21 -15 -5 -4 -3 -4 -2 -3 -4 -4 0 -1 -1 -2 -3 -3 -3 -1 -1 -1 -3 -6 -2 -10 -46 0 0 0 0 0 0 -25 -10 -7 -12 -4 -2 -5
-8 -3 0 -23 -38 -30 -17 -20 -35 -15 -3 -4 -5 -5 -7 -3 -2 -2 -2 -3 -3 -3 -1 -1 0 -1 -4 -3 0 -20 0 0 0 0 0 -53 -18 -12 -7 -8 -7 -6 -1
-4 -3 -3 -1 -2 -14 -12 -13 -17 -44 -18 -32 -27 -17 -12 -10 -13 -13 -11 -9 -5 -5 -4 -3 -1 0 0 -1 -1 -8 -82 0 0 0 0 -98 -18 -11 -4 -4 -3 -3 -2
-5 -1 -3 -2 -5 -6 -17 -11 -87 -58 -42 -42 -42 -115 -80 -44 -17 -11 -12 -13 -30 -21 -14 -5 -1 -1 -5 -5 -6 -12 -78 0 0 0 0 -72 -68 -42 -4 -1 0 0 0
-75 -29 -9 -20 -15 -16 -38 0 -28 -40 -47 -31 -33 -42 -47 -92 -23 -23 -45 -23 -28 -30 -38 -22 -14 -5 -6 -26 -38 -19 -64 0 0 0 0 -62 -43 -84 -42 -3 0 0 0
-14 -47 -4 -22 -29 -21 0 0 0 0 0 -8 -32 -20 -14 -11 -20 -21 -26 -12 -13 -12 -3 -3 -9 -16 -7 -9 -2 -13 -27 -52 -70 0 0 -80 -47 -46 -39 -18 -2 -1 0
-21 -67 0 0 0 0 0 0 0 0 0 0 0 0 0 0 0 0 0 0 0 0 0 0 -79 -3 -4 -8 -7 -6 -7 -9 -9 -67 -96 -140 -46 -44 -25 -14 -2 -3 -2
0 0 0 0 0 0 0 0 0 0 0 0 0 0 0 0 0 0 0 0 0 0 0 0 0 0 -35 -20 -8 -5 -4 -5 -2 -6 -33 -52 -45 -89 -52 -14 0 0 -1
0 0 0 0 0 0 0 0 0 0 0 0 0 0 0 0 0 0 0 0 0 0 0 0 0 0 0 -29 -67 -19 -9 0 -7 0 -11 -11 -1 -11 -26 -91 -12 0 -2
0 0 0 0 0 0 0 0 0 0 0 0 0 0 0 0 0 0 0 0 0 0 0 0 0 0 0 0 0 -49 -165 -81 -2 -4 -2 -6 -5 -31 -13 -8 -65 -6 0
0 0 0 0 0 0 0 0 0 0 0 0 0 0 0 0 0 0 0 0 0 0 0 0 0 0 0 0 0 0 0 -249 -1 -300 -247 -15 -75 -55 -58 -14 -3 -47 -4
0 0 0 0 0 0 0 0 0 0 0 0 0 0 0 0 0 0 0 0 0 0 0 0 0 0 0 0 0 0 0 0 0 0 0 -278 -152 -308 -119 -189 -38 -52 -43
0 0 0 0 0 0 0 0 0 0 0 0 0 0 0 0 0 0 0 0 0 0 0 0 0 0 0 0 0 0 0 0 0 0 0 0 0 -1 -1 0 0 -84 -52
0 0 0 0 0 0 0 0 0 0 0 0 0 0 0 0 0 0 0 0 0 0 0 0 0 0 0 -1 -3 0 0 0 0 0 0 0 0 0 0 0 0 0 -30
0 0 0 0 0 0 0 0 0 0 0 0 0 0 0 0 0 0 0 0 0 0 0 0 0 -3 -2 0 -3 -4 0 0 0 0 0 0 0 0 0 -1 -5 -4 -8
0 0 0 0 0 0 0 0 0 0 0 0 0 0 0 0 0 0 0 0 0 0 -1 -1 0 0 0 -2 0 -2 -1 -1 -5 0 0 0 0 0 0 -9 0 -2 -3
0 0 0 0 0 0 0 0 0 0 0 0 0 0 0 0 0 0 0 0 0 0 0 0 -4 0 0 0 -16 0 -3 -6 -1 -1 -3 -5 -8 -6 0 0 -11 -3 0
0 0 0 0 0 0 0 0 0 0 0 0 0 0 0 0 0 0 0 0 0 0 0 0 0 0 -14 -7 -10 -2 -11 -4 -5 -3 0 0 -2 0 0 0 -3 0 -1
0 0 0 0 0 0 0 0 0 0 0 0 0 0 0 0 0 0 0 0 0 0 0 0 0 0 0 0 -11 -11 -10 -4 -1 -3 -1 -2 -1 0 -13 -16 -25 0 0
Wind_Speed
27 27 27 26 25 24 26 25 24 22 22 21 20 19 19 17 16 19 19 21 20 19 18 19 20 21 21 20 21 21 21 19 17 16 16 17 17 17 15 12 15 16 20
32 30 29 29 29 26 28 28 28 26 25 23 23 22 22 19 18 18 19 20 19 18 18 20 20 20 22 22 21 21 21 19 15 13 14 16 17 16 17 17 17 20 21
34 34 30 30 31 30 31 32 32 32 31 28 26 25 24 20 19 17 19 19 20 19 19 20 21 22 22 22 22 22 19 17 nan 11 8 9 14 17 19 19 18 22 22
36 32 33 33 34 34 32 33 33 34 34 32 32 28 25 23 22 21 20 18 21 21 20 20 21 22 22 21 21 nan nan nan nan nan nan 8 nan 17 18 18 19 19 22
41 41 39 36 35 35 34 34 34 33 33 34 33 29 27 26 25 24 21 20 21 22 22 21 21 22 22 21 nan nan nan nan nan nan nan nan 16 16 18 18 19 18 20
43 43 41 38 36 35 34 36 37 38 38 39 39 36 34 33 29 27 26 26 25 24 24 21 21 21 21 21 20 nan nan nan nan nan nan 23 19 18 16 18 19 17 18
44 43 44 47 45 43 41 40 40 39 38 38 37 36 36 35 34 32 29 27 26 25 25 23 21 20 21 21 21 nan nan nan nan nan nan nan 21 20 18 16 20 20 17
38 38 39 45 47 46 45 46 42 42 41 40 37 32 30 30 33 33 31 31 28 26 25 23 21 19 21 21 20 20 nan nan nan nan nan nan 24 24 20 18 16 21 18
36 35 36 36 38 43 43 42 39 37 33 33 34 30 26 26 27 29 28 28 26 25 25 22 20 20 19 19 20 20 nan nan nan nan nan nan 24 24 24 20 16 17 19
34 34 34 32 31 32 30 35 34 32 37 39 36 33 31 26 26 31 31 30 28 26 24 23 22 19 20 21 22 21 nan nan nan nan nan nan 25 25 23 23 22 17 18
33 32 31 29 27 28 29 30 36 35 33 32 33 31 35 33 26 30 38 33 33 29 24 22 21 22 22 21 24 23 nan nan nan nan nan 24 nan 25 22 20 19 20 20
32 33 33 32 28 27 nan nan nan 25 27 26 22 21 19 32 13 24 18 19 30 27 25 21 21 19 23 26 28 28 28 nan nan nan nan 28 26 nan 21 19 17 19 23
29 31 33 31 31 nan nan nan nan nan nan nan 27 24 24 21 18 15 20 15 15 16 24 23 23 22 18 21 31 31 30 nan nan nan nan 32 31 27 23 22 18 18 22
26 nan nan nan nan nan nan nan nan nan nan nan nan nan nan nan nan nan nan nan nan nan nan nan nan 24 24 21 22 25 30 31 31 nan nan nan 31 29 25 22 24 23 25
nan nan nan nan nan nan nan nan nan nan nan nan nan nan nan nan nan nan nan nan nan nan nan nan nan nan 24 28 23 25 23 22 23 22 30 nan nan nan 23 24 23 24 24
nan nan nan nan nan nan nan nan nan nan nan nan nan nan nan nan nan nan nan nan nan nan nan nan nan nan nan nan 22 23 25 23 24 29 28 28 28 23 nan nan 23 23 26
nan nan nan nan nan nan nan nan nan nan nan nan nan nan nan nan nan nan nan nan nan nan nan nan nan nan nan nan nan nan nan nan 19 20 21 23 23 25 24 nan nan 22 21
nan nan nan nan nan nan nan nan nan nan nan nan nan nan nan nan nan nan nan nan nan nan nan nan nan nan nan nan nan nan nan nan nan nan nan 25 nan nan nan 21 21 nan 19
nan nan nan nan nan nan nan nan nan nan nan nan nan nan nan nan nan nan nan nan nan nan nan nan nan nan nan nan nan nan nan nan nan nan nan nan nan nan nan nan nan nan 28
nan nan nan nan nan nan nan nan nan nan nan nan nan nan nan nan nan nan nan nan nan nan nan nan nan nan nan nan nan nan nan nan nan nan nan nan nan nan nan nan nan nan nan
nan nan nan nan nan nan nan nan nan nan nan nan nan nan nan nan nan nan nan nan nan nan nan nan nan nan nan nan nan nan nan nan nan nan nan nan nan nan nan nan nan nan nan
nan nan nan nan nan nan nan nan nan nan nan nan nan nan nan nan nan nan nan nan nan nan nan nan nan nan nan nan nan nan nan nan nan nan nan nan nan nan nan nan nan nan nan
nan nan nan nan nan nan nan nan nan nan nan nan nan nan nan nan nan nan nan nan nan nan nan nan nan nan nan nan nan nan nan nan nan nan nan nan nan nan nan nan nan nan nan
nan nan nan nan nan nan nan nan nan nan nan nan nan nan nan nan nan nan nan nan nan nan nan nan nan nan nan nan nan nan nan nan nan nan nan nan nan nan nan nan nan nan nan
nan nan nan nan nan nan nan nan nan nan nan nan nan nan nan nan nan nan nan nan nan nan nan nan nan nan nan nan nan nan nan nan nan nan nan nan nan nan nan nan nan nan nan
nan nan nan nan nan nan nan nan nan nan nan nan nan nan nan nan nan nan nan nan nan nan nan nan nan nan nan nan nan nan nan nan nan nan nan nan nan nan nan nan nan nan nan
Wind_Direction
259 261 265 264 262 273 269 273 270 275 276 275 276 277 279 283 274 270 272 273 277 276 267 264 264 264 264 262 257 256 252 248 249 249 244 237 237 241 238 241 247 231 236
264 262 262 263 261 267 269 273 274 274 276 278 277 278 280 283 276 270 270 276 283 277 269 266 264 269 268 264 263 261 258 253 248 253 257 249 237 240 226 237 241 238 241
262 261 263 260 259 260 267 274 275 279 279 281 281 277 274 275 277 271 272 276 281 278 275 269 267 265 267 267 264 262 259 253 nan 245 243 244 246 243 246 251 250 241 234
259 264 262 263 261 261 265 270 272 274 276 278 274 271 270 268 267 267 268 275 274 277 277 272 269 269 267 268 267 nan nan nan nan nan nan 252 nan 263 257 257 256 254 242
244 248 258 261 263 264 266 267 269 270 270 270 270 269 269 269 266 260 257 266 271 274 273 270 269 269 267 264 nan nan nan nan nan nan nan nan 241 262 269 263 258 261 253
248 248 252 257 260 261 262 262 262 264 268 271 271 272 271 267 267 261 255 259 265 271 272 271 269 268 266 264 261 nan nan nan nan nan nan 249 245 251 272 268 266 259 261
247 251 247 252 251 252 254 258 262 266 267 268 272 274 274 268 263 258 256 257 261 265 269 271 269 269 267 264 258 nan nan nan nan nan nan nan 242 243 255 273 266 265 266
244 245 253 253 252 249 249 251 255 261 264 266 266 263 268 265 261 259 258 256 257 259 265 264 262 262 264 264 260 253 nan nan nan nan nan nan 248 242 247 270 275 271 265
250 248 243 250 258 254 251 253 251 251 262 262 257 253 255 258 261 260 254 249 247 250 257 264 263 260 263 265 263 259 nan nan nan nan nan nan 253 247 244 254 263 270 274
247 252 253 250 245 249 249 249 250 252 256 255 251 246 244 253 256 260 259 251 251 250 253 261 267 265 260 261 264 267 nan nan nan nan nan nan 263 250 247 248 258 266 257
254 253 256 261 252 253 250 249 250 252 252 255 252 248 254 245 241 242 243 247 244 243 244 250 262 269 270 264 261 262 nan nan nan nan nan 265 nan 257 246 253 257 264 267
257 259 258 256 261 263 nan nan nan 281 254 262 284 295 256 254 233 229 248 241 237 244 245 249 255 267 265 258 255 260 255 nan nan nan nan 270 265 nan 250 250 258 267 269
256 256 257 256 253 nan nan nan nan nan nan nan 262 270 294 299 309 289 274 274 264 254 247 257 258 257 263 260 258 260 257 nan nan nan nan 271 270 266 261 254 257 272 278
253 nan nan nan nan nan nan nan nan nan nan nan nan nan nan nan nan nan nan nan nan nan nan nan nan 262 254 262 274 267 253 246 249 nan nan nan 266 267 265 263 266 273 277
nan nan nan nan nan nan nan nan nan nan nan nan nan nan nan nan nan nan nan nan nan nan nan nan nan nan 258 255 262 272 275 269 274 273 277 nan nan nan 265 267 268 278 281
nan nan nan nan nan nan nan nan nan nan nan nan nan nan nan nan nan nan nan nan nan nan nan nan nan nan nan nan 262 259 265 263 263 262 273 273 293 289 nan nan 276 273 278
nan nan nan nan nan nan nan nan nan nan nan nan nan nan nan nan nan nan nan nan nan nan nan nan nan nan nan nan nan nan nan nan 267 264 261 260 261 268 272 nan nan 275 284
nan nan nan nan nan nan nan nan nan nan nan nan nan nan nan nan nan nan nan nan nan nan nan nan nan nan nan nan nan nan nan nan nan nan nan 273 nan nan nan 281 288 nan 287
nan nan nan nan nan nan nan nan nan nan nan nan nan nan nan nan nan nan nan nan nan nan nan nan nan nan nan nan nan nan nan nan nan nan nan nan nan nan nan nan nan nan 289
nan nan nan nan nan nan nan nan nan nan nan nan nan nan nan nan nan nan nan nan nan nan nan nan nan nan nan nan nan nan nan nan nan nan nan nan nan nan nan nan nan nan nan
nan nan nan nan nan nan nan nan nan nan nan nan nan nan nan nan nan nan nan nan nan nan nan nan nan nan nan nan nan nan nan nan nan nan nan nan nan nan nan nan nan nan nan
nan nan nan nan nan nan nan nan nan nan nan nan nan nan nan nan nan nan nan nan nan nan nan nan nan nan nan nan nan nan nan nan nan nan nan nan nan nan nan nan nan nan nan
nan nan nan nan nan nan nan nan nan nan nan nan nan nan nan nan nan nan nan nan nan nan nan nan nan nan nan nan nan nan nan nan nan nan nan nan nan nan nan nan nan nan nan
nan nan nan nan nan nan nan nan nan nan nan nan nan nan nan nan nan nan nan nan nan nan nan nan nan nan nan nan nan nan nan nan nan nan nan nan nan nan nan nan nan nan nan
nan nan nan nan nan nan nan nan nan nan nan nan nan nan nan nan nan nan nan nan nan nan nan nan nan nan nan nan nan nan nan nan nan nan nan nan nan nan nan nan nan nan nan
nan nan nan nan nan nan nan nan nan nan nan nan nan nan nan nan nan nan nan nan nan nan nan nan nan nan nan nan nan nan nan nan nan nan nan nan nan nan nan nan nan nan nan